Weather History for Owatonna, MN

Change the Weather History Date:

Tuesday, December 11, 2012

  Actual Average Record
Temperature  
Mean Temperature 18 °F -  
Max Temperature 24 °F 28 °F 50 °F (1998)
Min Temperature 12 °F 10 °F -10 °F (1976)
Degree Days  
Heating Degree Days 47    
Moisture  
Dew Point 13 °F    
Average Humidity 74    
Maximum Humidity 86    
Minimum Humidity 63    
Precipitation  
Precipitation 0.00 in - - ()
Sea Level Pressure  
Sea Level Pressure 29.86 in    
Wind  
Wind Speed 8 mph (SW)    
Max Wind Speed 13 mph    
Max Gust Speed -    
Visibility 8 miles    
Events Snow    
Averages and records for this station are not official NWS values.
T = Trace of Precipitation, MM = Missing Value Source: NWS Daily Summary

Daily Weather History Graph

Daily Weather History Graph

Search for Another Location

Airport:

Trip Planner

Search our weather history database for the weather conditions in past years. The results will help you decide how hot, cold, wet, or windy it might be!

Date:

Astronomy

Dec. 11, 2012 Rise Set
Actual Time 7:38 AM CST 4:34 PM CST
Civil Twilight 7:05 AM CST 5:07 PM CST
Nautical Twilight 6:28 AM CST 5:44 PM CST
Astronomical Twilight 5:53 AM CST 6:19 PM CST
Moon 5:32 AM CST (12/11) 3:15 PM CST (12/11)
Length of Visible Light 10h 02m
Length of Day
8h 56m
Waning Crescent, 4% of the Moon is Illuminated
Dec 11
Waning Crescent
Dec 13
New
Dec 19
First Quarter
Dec 28
Full
Jan 4
Last Quarter

Hourly Weather History & Observations

Time (CST) Temp. Windchill Dew Point Humidity Pressure Visibility Wind Dir Wind Speed Gust Speed Precip Events Conditions
12:13 AM 17.6 °F 4.3 °F 8.6 °F 68% 29.80 in 10.0 mi SSE 12.7 mph - N/A   Overcast
12:33 AM 17.6 °F 5.0 °F 8.6 °F 68% 29.79 in 10.0 mi SSE 11.5 mph - N/A   Overcast
12:53 AM 17.6 °F 4.3 °F 8.6 °F 68% 29.78 in 10.0 mi SSE 12.7 mph - N/A   Overcast
1:13 AM 19.4 °F 7.2 °F 8.6 °F 63% 29.78 in 10.0 mi South 11.5 mph - N/A   Overcast
1:33 AM 19.4 °F 8.6 °F 8.6 °F 63% 29.77 in 10.0 mi South 9.2 mph - N/A   Overcast
1:53 AM 19.4 °F 7.9 °F 8.6 °F 63% 29.78 in 10.0 mi South 10.4 mph - N/A   Overcast
2:13 AM 19.4 °F 7.9 °F 10.4 °F 68% 29.78 in 10.0 mi South 10.4 mph - N/A   Overcast
2:33 AM 19.4 °F 8.6 °F 10.4 °F 68% 29.77 in 7.0 mi South 9.2 mph - N/A Snow Light Snow
2:54 AM 21.2 °F 10.9 °F 10.4 °F 63% 29.77 in 5.0 mi South 9.2 mph - N/A Snow Light Snow
3:13 AM 21.2 °F 9.5 °F 12.2 °F 68% 29.78 in 10.0 mi SSW 11.5 mph - N/A Snow Light Snow
3:34 AM 21.2 °F 10.9 °F 14.0 °F 74% 29.78 in 10.0 mi SSW 9.2 mph - N/A   Overcast
3:53 AM 21.2 °F 10.9 °F 12.2 °F 68% 29.77 in 10.0 mi SSW 9.2 mph - N/A Snow Light Snow
4:13 AM 21.2 °F 10.9 °F 12.2 °F 68% 29.78 in 10.0 mi SW 9.2 mph - N/A   Overcast
4:33 AM 21.2 °F 9.5 °F 12.2 °F 68% 29.78 in 10.0 mi WSW 11.5 mph - N/A   Overcast
4:53 AM 19.4 °F 9.5 °F 10.4 °F 68% 29.78 in 10.0 mi WSW 8.1 mph - N/A   Overcast
5:13 AM 19.4 °F 7.9 °F 10.4 °F 68% 29.78 in 10.0 mi WSW 10.4 mph - N/A   Scattered Clouds
5:33 AM 17.6 °F 7.3 °F 10.4 °F 73% 29.79 in 10.0 mi WSW 8.1 mph - N/A   Scattered Clouds
5:53 AM 15.8 °F 6.1 °F 8.6 °F 73% 29.80 in 10.0 mi WSW 6.9 mph - N/A   Clear
6:14 AM 15.8 °F 5.1 °F 8.6 °F 73% 29.80 in 10.0 mi West 8.1 mph - N/A   Scattered Clouds
6:33 AM 15.8 °F 6.1 °F 8.6 °F 73% 29.81 in 10.0 mi West 6.9 mph - N/A   Overcast
6:54 AM 15.8 °F 6.1 °F 8.6 °F 73% 29.81 in 10.0 mi WSW 6.9 mph - N/A   Mostly Cloudy
7:14 AM 12.2 °F 4.3 °F 6.8 °F 79% 29.81 in 10.0 mi WSW 4.6 mph - N/A   Clear
7:33 AM 12.2 °F 2.9 °F 6.8 °F 79% 29.81 in 10.0 mi SW 5.8 mph - N/A   Clear
7:53 AM 12.2 °F 1.7 °F 5.0 °F 73% 29.82 in 10.0 mi SW 6.9 mph - N/A   Clear
8:14 AM 12.2 °F 1.7 °F 6.8 °F 79% 29.83 in 10.0 mi SW 6.9 mph - N/A   Clear
8:34 AM 14.0 °F 3.9 °F 6.8 °F 73% 29.83 in 10.0 mi SW 6.9 mph - N/A   Scattered Clouds
8:53 AM 15.8 °F 7.2 °F 8.6 °F 73% 29.83 in 10.0 mi SW 5.8 mph - N/A   Mostly Cloudy
9:13 AM 17.6 °F 8.2 °F 10.4 °F 73% 29.84 in 10.0 mi WSW 6.9 mph - N/A   Overcast
9:53 AM 17.6 °F 7.3 °F 10.4 °F 73% 29.85 in 10.0 mi WSW 8.1 mph - N/A   Overcast
10:13 AM 19.4 °F 11.5 °F 10.4 °F 68% 29.84 in 10.0 mi SW 5.8 mph - N/A   Mostly Cloudy
10:34 AM 19.4 °F 11.5 °F 12.2 °F 74% 29.85 in 10.0 mi SW 5.8 mph - N/A   Mostly Cloudy
10:53 AM 21.2 °F 12.6 °F 12.2 °F 68% 29.85 in 10.0 mi WSW 6.9 mph - N/A   Overcast
11:13 AM 21.2 °F 11.7 °F 12.2 °F 68% 29.86 in 7.0 mi SW 8.1 mph - N/A   Overcast
11:33 AM 21.2 °F 10.9 °F 12.2 °F 68% 29.86 in 2.0 mi SW 9.2 mph - N/A Snow Light Snow
11:54 AM 21.2 °F 10.9 °F 14.0 °F 74% 29.85 in 4.0 mi WSW 9.2 mph - N/A Snow Light Snow
12:13 PM 23.0 °F 13.9 °F 15.8 °F 74% 29.85 in 5.0 mi WSW 8.1 mph - N/A Snow Light Snow
12:33 PM 23.0 °F 13.1 °F 15.8 °F 74% 29.86 in 7.0 mi WSW 9.2 mph - N/A Snow Light Snow
12:53 PM 23.0 °F 13.9 °F 15.8 °F 74% 29.86 in 1.8 mi SW 8.1 mph - N/A Snow Light Snow
1:13 PM 23.0 °F 14.7 °F 15.8 °F 74% 29.86 in 1.5 mi WSW 6.9 mph - N/A Snow Light Snow
1:33 PM 24.8 °F 16.9 °F 15.8 °F 69% 29.85 in 1.8 mi SW 6.9 mph - N/A Snow Light Snow
1:53 PM 24.8 °F 17.9 °F 15.8 °F 69% 29.85 in 7.0 mi WSW 5.8 mph - N/A Snow Light Snow
2:14 PM 24.8 °F 17.9 °F 17.6 °F 74% 29.86 in 5.0 mi WSW 5.8 mph - N/A Snow Light Snow
2:33 PM 24.8 °F 19.1 °F 17.6 °F 74% 29.86 in 5.0 mi WSW 4.6 mph - N/A Snow Light Snow
2:53 PM 24.8 °F 20.5 °F 17.6 °F 74% 29.86 in 3.0 mi SW 3.5 mph - N/A Snow Light Snow
3:13 PM 24.8 °F 20.5 °F 17.6 °F 74% 29.87 in 5.0 mi West 3.5 mph - N/A Snow Light Snow
3:33 PM 24.8 °F - 17.6 °F 74% 29.87 in 7.0 mi Calm Calm - N/A Snow Light Snow
3:53 PM 24.8 °F - 17.6 °F 74% 29.88 in 4.0 mi Calm Calm - N/A Snow Light Snow
4:14 PM 24.8 °F - 17.6 °F 74% 29.89 in 10.0 mi Calm Calm - N/A   Overcast
4:33 PM 24.8 °F - 17.6 °F 74% 29.89 in 4.0 mi Calm Calm - N/A Snow Light Snow
4:53 PM 19.4 °F - 12.2 °F 74% 29.90 in 5.0 mi Calm Calm - N/A Snow Light Snow
5:13 PM 14.0 °F - 8.6 °F 79% 29.90 in 4.0 mi Calm Calm - N/A   Haze
5:33 PM 12.2 °F - 6.8 °F 79% 29.91 in 0.2 mi Calm Calm - N/A   Haze
5:53 PM 19.4 °F - 14.0 °F 80% 29.92 in 0.8 mi Calm Calm - N/A   Haze
6:13 PM 15.8 °F 10.2 °F 8.6 °F 73% 29.92 in 1.2 mi SSW 3.5 mph - N/A   Haze
6:33 PM 17.6 °F - 12.2 °F 79% 29.92 in 5.0 mi Calm Calm - N/A   Haze
6:54 PM 19.4 °F - 12.2 °F 74% 29.92 in 5.0 mi Calm Calm - N/A   Haze
7:14 PM 19.4 °F - 14.0 °F 80% 29.93 in 7.0 mi Calm Calm - N/A   Overcast
7:33 PM 19.4 °F - 14.0 °F 80% 29.93 in 7.0 mi Calm Calm - N/A   Overcast
7:53 PM 19.4 °F - 14.0 °F 80% 29.94 in 10.0 mi Calm Calm - N/A   Overcast
8:14 PM 21.2 °F - 15.8 °F 80% 29.94 in 7.0 mi Calm Calm - N/A   Overcast
8:34 PM 21.2 °F - 17.6 °F 86% 29.95 in 7.0 mi Calm Calm - N/A   Overcast
8:54 PM 24.8 °F 19.1 °F 17.6 °F 74% 29.95 in 7.0 mi South 4.6 mph - N/A   Overcast
9:14 PM 24.8 °F 20.5 °F 19.4 °F 80% 29.95 in 7.0 mi SSE 3.5 mph - N/A   Overcast
9:33 PM 24.8 °F 20.5 °F 19.4 °F 80% 29.94 in 10.0 mi SSE 3.5 mph - N/A   Overcast
9:53 PM 24.8 °F 20.5 °F 19.4 °F 80% 29.95 in 10.0 mi SE 3.5 mph - N/A   Overcast
10:13 PM 24.8 °F - 19.4 °F 80% 29.95 in 10.0 mi Calm Calm - N/A   Overcast
10:33 PM 24.8 °F 20.5 °F 19.4 °F 80% 29.95 in 10.0 mi ESE 3.5 mph - N/A   Overcast
10:53 PM 24.8 °F - 19.4 °F 80% 29.96 in 7.0 mi Calm Calm - N/A   Overcast
11:13 PM 24.8 °F - 19.4 °F 80% 29.96 in 10.0 mi Calm Calm - N/A   Overcast
11:33 PM 24.8 °F 19.1 °F 19.4 °F 80% 29.97 in 10.0 mi ESE 4.6 mph - N/A   Mostly Cloudy
11:54 PM 24.8 °F 19.1 °F 19.4 °F 80% 29.97 in 7.0 mi ESE 4.6 mph - N/A   Scattered Clouds